Location: L�beck
(53.8752°N, 10.6787°E)
Time: 09:10:25
(UTC+01:00)

ISS - Visible Passes

Search period start: 17 February 2019 00:00
Search period end: 27 February 2019 00:00
Orbit: 403 x 411 km, 51.6° (Epoch: 17 February)

Date Brightness Start Highest point End Pass type
(mag) Time Alt. Az. Time Alt. Az. Time Alt. Az.
23 Feb -0.6 06:36:13 10° SSE 06:37:13 11° SE 06:38:13 10° ESE visible
25 Feb -1.3 06:27:58 10° SSW 06:30:22 19° SSE 06:32:47 10° E visible
26 Feb -1.0 05:37:26 10° S 05:39:05 13° SE 05:40:44 10° ESE visible
